AXB1250 VOBL-VOHS

Flight info

Callsign AXB1250
Flight time N/A
Altitude 31000
Route LATID8A LATID Q22 SAKRO SARKA8
Aircraft B738/M-SDE2E3FGHIRWXY/LB1

Departure

Time 2026-05-09 05:48
Airport Kempegowda International Airport Bengaluru (VOBL)

Arrival

Time N/A
Airport Rajiv Gandhi International Airport (VOHS)
Time Latitude Longitude Altitude Speed Heading
2026-05-09 05:37 13.20364 77.69666 3014 ft 0 kts
2026-05-09 05:40 13.20350 77.69666 3035 ft 4 kts
2026-05-09 05:40 13.20325 77.69666 3008 ft 3 kts
2026-05-09 05:41 13.20302 77.69670 3012 ft 4 kts 314°
2026-05-09 05:41 13.20293 77.69692 3012 ft 4 kts 271°
2026-05-09 05:41 13.20293 77.69703 3014 ft 1 kts 270°
2026-05-09 05:43 13.20293 77.69700 3014 ft 1 kts 270°
2026-05-09 05:44 13.20293 77.69679 3013 ft 5 kts 270°
2026-05-09 05:44 13.20293 77.69630 3012 ft 9 kts 270°
2026-05-09 05:44 13.20294 77.69554 3010 ft 12 kts 270°
2026-05-09 05:44 13.20294 77.69454 3010 ft 15 kts 270°
2026-05-09 05:45 13.20307 77.69355 3012 ft 14 kts 303°
2026-05-09 05:45 13.20395 77.69333 3013 ft 13 kts
2026-05-09 05:45 13.20485 77.69333 3012 ft 11 kts
2026-05-09 05:45 13.20541 77.69302 3010 ft 9 kts 282°
2026-05-09 05:46 13.20543 77.69237 3010 ft 9 kts 271°
2026-05-09 05:46 13.20568 77.69198 3013 ft 6 kts 347°
2026-05-09 05:46 13.20610 77.69202 3010 ft 6 kts
2026-05-09 05:46 13.20652 77.69202 3010 ft 6 kts 358°
2026-05-09 05:47 13.20693 77.69207 3010 ft 6 kts 21°
2026-05-09 05:47 13.20714 77.69244 3010 ft 7 kts 84°
2026-05-09 05:47 13.20714 77.69330 3010 ft 34 kts 91°
2026-05-09 05:47 13.20710 77.69818 3010 ft 102 kts 90°
2026-05-09 05:48 13.20701 77.70750 3010 ft 157 kts 91°
2026-05-09 05:48 13.20672 77.71991 3347 ft 179 kts 91°
2026-05-09 05:48 13.20753 77.73228 4267 ft 175 kts 69°
2026-05-09 05:48 13.21555 77.74179 4905 ft 190 kts 33°
2026-05-09 05:49 13.22790 77.74899 5178 ft 215 kts 38°
2026-05-09 05:49 13.24038 77.75813 5623 ft 228 kts 30°
2026-05-09 05:49 13.25666 77.76218 5854 ft 251 kts
2026-05-09 05:49 13.27442 77.76330 6302 ft 264 kts
2026-05-09 05:50 13.29343 77.76498 6613 ft 282 kts
2026-05-09 05:50 13.31301 77.76711 7435 ft 281 kts
2026-05-09 05:50 13.33233 77.76948 8333 ft 280 kts
2026-05-09 05:50 13.35156 77.77204 9090 ft 284 kts 10°
2026-05-09 05:51 13.37128 77.77482 9876 ft 287 kts 10°
2026-05-09 05:51 13.39124 77.77774 10477 ft 297 kts 10°
2026-05-09 05:51 13.41255 77.78096 10656 ft 320 kts 10°
2026-05-09 05:51 13.43493 77.78439 11149 ft 329 kts 10°
2026-05-09 05:52 13.45774 77.78790 11840 ft 332 kts 10°
2026-05-09 05:52 13.48068 77.79146 12540 ft 335 kts 10°
2026-05-09 05:52 13.50382 77.79508 13199 ft 339 kts 10°
2026-05-09 05:52 13.52727 77.79875 13854 ft 343 kts 10°
2026-05-09 05:53 13.55105 77.80249 14429 ft 346 kts 10°
2026-05-09 05:53 13.57504 77.80627 14986 ft 351 kts 10°
2026-05-09 05:53 13.59926 77.81008 15558 ft 354 kts 10°
2026-05-09 05:53 13.62377 77.81396 16097 ft 359 kts
2026-05-09 05:54 13.64866 77.81788 16609 ft 364 kts
2026-05-09 05:54 13.67395 77.82187 17127 ft 369 kts
2026-05-09 05:54 13.69947 77.82590 17627 ft 374 kts
2026-05-09 05:54 13.72539 77.82999 18136 ft 379 kts
2026-05-09 05:55 13.75164 77.83413 18585 ft 383 kts
2026-05-09 05:55 13.77771 77.83825 19093 ft 384 kts
2026-05-09 05:55 13.80407 77.84242 19643 ft 384 kts
2026-05-09 05:55 13.83054 77.84660 20171 ft 385 kts
2026-05-09 05:56 13.85708 77.85080 20678 ft 386 kts
2026-05-09 05:56 13.88371 77.85502 21169 ft 388 kts
2026-05-09 05:56 13.91042 77.85924 21673 ft 389 kts
2026-05-09 05:56 13.93717 77.86348 22179 ft 390 kts
2026-05-09 05:57 13.96402 77.86773 22643 ft 392 kts
2026-05-09 05:57 13.99110 77.87202 23061 ft 394 kts
2026-05-09 05:57 14.01828 77.87632 23474 ft 397 kts
2026-05-09 05:57 14.04568 77.88066 23840 ft 399 kts
2026-05-09 05:58 14.07320 77.88503 24171 ft 402 kts
2026-05-09 05:58 14.10093 77.88942 24483 ft 404 kts
2026-05-09 05:58 14.12883 77.89384 24817 ft 406 kts
2026-05-09 05:58 14.15691 77.89830 25141 ft 409 kts
2026-05-09 05:59 14.18508 77.90277 25455 ft 411 kts
2026-05-09 05:59 14.21348 77.90727 25772 ft 414 kts
2026-05-09 05:59 14.24171 77.91175 26074 ft 416 kts
2026-05-09 05:59 14.27041 77.91631 26382 ft 419 kts
2026-05-09 06:00 14.29938 77.92091 26664 ft 422 kts
2026-05-09 06:00 14.32852 77.92554 26939 ft 425 kts
2026-05-09 06:00 14.35787 77.93020 27213 ft 428 kts
2026-05-09 06:00 14.38748 77.93491 27500 ft 430 kts
2026-05-09 06:01 14.41714 77.93963 27772 ft 433 kts
2026-05-09 06:01 14.44703 77.94439 28074 ft 435 kts
2026-05-09 06:01 14.47654 77.94908 28466 ft 434 kts
2026-05-09 06:01 14.50672 77.95403 28872 ft 434 kts